Location: Moy Burn
(57.3833°N, 4.0667°W)
Time: 09:45:14
(UTC+00:00)

GENESIS II - Pass Details

Date: 08 August 2020
Orbit: 490 x 538 km, 64.5° (Epoch: 18 September)

Event Time Altitude Azimuth Distance (km) Brightness Sun altitude
Rises 23:26:33 0° 307° (NW) 2,698 8.7 -15.9°
Reaches altitude 10° 23:28:46 10° 306° (NW) 1,800 7.7 -16.0°
Maximum altitude 23:32:48 75° 222° (SW) 556 4.2 -16.1°
Enters shadow 23:34:38 31° 142° (SE) 954 5.0 -16.2°
